Regional Weather Roundup
Issued by NWS

Home | Current Version | Previous Version | Text Only | Print | Product List | Glossary On
Versions: 1 2 3 4 5 6 7 8 9 10 11 12 13 14 15 16 17 18 19 20 21 22 23 24 25 26 27 28 29 30 31 32 33 34 35 36 37 38 39 40 41 42 43 44 45 46 47 48 49 50
000
ASHW40 PHFO 222043
RWRHI

WEATHER ROUNDUP FOR HAWAII
NATIONAL WEATHER SERVICE HONOLULU HI
1000 AM HST SUN JAN 22 2017

THIS IS AN AUTOMATED REPORT THAT HAS NOT BEEN QUALITY CONTROLLED.

NOTE..."FAIR" INDICATES FEW OR NO CLOUDS BELOW 12,000 FEET WITH NO
SIGNIFICANT WEATHER AND/OR OBSTRUCTIONS TO VISIBILITY.

* - THESE SITES REPORT LIMITED FIELDS

HIZ001>004-222100-
KAUAI-NIIHAU-

CITY           SKY/WX    TMP DP  RH WIND       PRES   REMARKS
LIHUE APT      CLOUDY    74  61  63 E24G31    30.25R
PORT ALLEN*      N/A     73 N/A N/A E28G38      N/A
POIPU*           N/A     73 N/A N/A NE13G26     N/A
PRINCEVILLE*   NOT AVBL
KOKOLE POINT*  NOT AVBL
MOLOAA DAIRY*    N/A     72  59  64 E12G22      N/A
WAIMEA HTS*      N/A     75  54  46 E12G21      N/A
PUU OPAE*      NOT AVBL
PUU LUA*       NOT AVBL
MAKAHA RIDGE*    N/A     70  52  52 SE2G14      N/A
$$

HIZ005>011-222100-
OAHU-

CITY           SKY/WX    TMP DP  RH WIND       PRES   REMARKS
HONOLULU       CLOUDY    76  57  51 E29G40    30.19R
KALAELOA       MOSUNNY   79  57  47 E16G25    30.20R
KANEOHE MCB    PTSUNNY   77  62  58 NE14G21   30.21
WHEELER FIELD  FAIR      69  58  68 E15G25    30.19R
BELLOWS*         N/A    N/A N/A N/A E24G30      N/A
KAHUKU*          N/A    N/A N/A N/A NE17G32     N/A
WHEELER*         N/A    N/A N/A N/A NE12G22     N/A
WAIANAE HARBOR   N/A    N/A N/A N/A NE9G23      N/A
DILLINGHAM*      N/A     73  54  49 MISG        N/A
KAHUKU TRN*      N/A    N/A N/A N/A W16G35      N/A
KAWAILOA*        N/A     64  59  82 E25G38      N/A
KII*             N/A    N/A N/A N/A E26G36      N/A
MAKUA RANGE*     N/A     73  54  49 W18G35      N/A
OAHU FOREST NW   N/A     64  55  72 E35G61      N/A
SCHOFIELD BRK*   N/A     70  59  68 MISG        N/A
SCHOFIELD S*   NOT AVBL
WAIANAE VLY*     N/A     70  57  64 VRB18G39    N/A
KUAOKALA*        N/A     70   0   6 NE26G41     N/A
HONOULIUULI*   NOT AVBL
MOKUOLOE IS*   NOT AVBL
PALEHUA*         N/A     63  55  77 NE20G39     N/A
WAIAWA PHB*    NOT AVBL
$$

HIZ012>013-222100-
MOLOKAI-

CITY           SKY/WX    TMP DP  RH WIND       PRES   REMARKS
MOLOKAI AIRPT  MOSUNNY   74  56  53 NE24G39   30.19S
KALAUPAPA      NOT AVBL
MAKAPULAPAI*     N/A    N/A N/A N/A E26G40      N/A
MOLOKAI 1*       N/A     63 N/A N/A NE12        N/A
PUU ALII*        N/A     52  52 100 N3G15       N/A
$$

HIZ016-222100-
KAHOOLAWE-

CITY           SKY/WX    TMP DP  RH WIND       PRES   REMARKS
KAHOOLAWE*     NOT AVBL
HAKIOAWA*        N/A     72  58  62 MISG        N/A
HONOKANAIA*      N/A     76  60  56 NE25G41     N/A
KANELOA*         N/A     72  61  68 NE28G49   30.22R
KEALIALALO*    NOT AVBL
LUA MAKIKA*    NOT AVBL
$$

HIZ014>015-222100-
LANAI-

CITY           SKY/WX    TMP DP  RH WIND       PRES   REMARKS
LANAI CITY     NOT AVBL
LANAI 1*       NOT AVBL
$$

HIZ017>028-222100-
MAUI-

CITY           SKY/WX    TMP DP  RH WIND       PRES   REMARKS
KAHULUI        MOSUNNY   75  59  57 E20G31    30.22S
KAPALUA-W MAUI MOSUNNY   72  55  56 NE25G38   30.20
HANA AIRPORT   CLOUDY    73  59  60 E13       30.29S HAZE
HANA*            N/A     73 N/A N/A E13G23      N/A
HALEAKALA SUMM   N/A     50  12  22 N6G43       N/A
MAALAEA BAY*     N/A     75 N/A N/A N25G44      N/A
HALEAKALA*     NOT AVBL
KAUPO GAP*       N/A     73  59  60 VRB15G40    N/A
KULA 1*          N/A     59  38  45 NE3         N/A
$$

HIZ023>026-222100-
BIG ISLAND OF HAWAII COAST AND LOWER SLOPES-

CITY           SKY/WX    TMP DP  RH WIND       PRES   REMARKS
KAILUA KONA    MOSUNNY   79  61  53 CALM      30.11R
HILO           CLOUDY    70  63  78 SW6       30.27R
HONOKAA*         N/A     63 N/A N/A VRB1        N/A
KAWAIHAE MWT*  NOT AVBL
KAWAIHAE*        N/A     79 N/A N/A SW8       30.11S
SOUTH POINT*     N/A     72 N/A N/A N30G44      N/A
UPOLU AIRPORT* NOT AVBL
KAMUELA*       MOCLDY    61  57  88 NE28G40   30.23S
HAKALAU*         N/A     50  50  99 S3G9        N/A
KALOKO-HONOKO*   N/A     81  64  57 W6          N/A
PALI 2*          N/A     64  55  72 S24G38      N/A
KEALAKOMO*       N/A     75  61  60 N25G35      N/A
KAUPULEHU*       N/A     77  57  50 NE12G22     N/A
KAPAPALA*      NOT AVBL
LOWER KAHUKU*    N/A     66  54  63 NE5G17      N/A
PUHE CS*         N/A     81  57  44 W3          N/A
PUHO CS*         N/A     83  65  53 SW2         N/A
PTA KEAMUKU*     N/A     63  55  77 CALM        N/A
WAIKOLOA*        N/A     73  57  56 NE23G41     N/A
$$

HIZ027>028-222100-
BIG ISLAND OF HAWAII INTERIOR AND SUMMMITS-

CITY           SKY/WX    TMP DP  RH WIND       PRES   REMARKS
BRADSHAW FIELD SUNNY     56  47  71 S16G23    30.42R
MK VISITOR CEN   N/A     54  14  20 VRB3        N/A
MAUNA KEA*       N/A     32  12  43 S1          N/A
MAUNA LOA*       N/A     45   9  23 MISG        N/A
MAUNA LOA 1*   NOT AVBL
PTA KIPUKA*      N/A     54  32  43 S3G14       N/A
PTA RANGE 17*    N/A     57  45  62 E18G35      N/A
PTA WEST*        N/A     55  36  47 SE26G37     N/A
NENE CABIN*      N/A     55  41  58 E10G22      N/A
AHUMOA*          N/A     66  42  41 W5          N/A
PTA PORTABLE*  NOT AVBL
PUU MALI*        N/A     61 N/A N/A W3G14       N/A
$$

HIC003-222100-
NORTHWEST ISLANDS-

CITY           SKY/WX    TMP DP  RH WIND       PRES   REMARKS
MIDWAY ISLAND  PTSUNNY   73  64  73 S16       30.10S
MIDWAY NOS*      N/A     73 N/A N/A MISG      30.10R
FRENCH FRIGATE NOT AVBL
$$

PHZ110>124-180-222100-
BUOY REPORTS

STATION/POSITION TIME  TEMP    WIND        PRES    WAVE   SWELL
                       AIR SEA DIR/SP/G            HT/PER HT/DIR
                 (UTC) (F)     (DEG/KT/KT) (MB)    (FT/S) (FT/D)
BUOY 51001       2020   72 74   90/ 21/ 27 1025.3
BUOY 51101       1950   73 75   90/ 17/ 21 1025.4R  10/ 9   7/ 60
BUOY 51100       NOT AVBL
BUOY 51002       2020   76 78   70/ 19/ 27 1018.5
BUOY 51003       1950   76 78   70/ 19/ 25 1019.7R  15/11  11/ 20
BUOY 51004       1950      77   70/ 23/ 29 1019.6R  14/ 8  10/ 20
BARBERS PT BUOY  NOT AVBL
WAIMEA BAY BUOY  2002      74                N/A    11/11   7
KAILUA BAY BUOY  2004      76                N/A    14/11   7/ 20
LANAI BUOY       2015      77                N/A     3/11   2/310
BARBERS PT 2     2009      77                N/A     7/11   3/300
PAUWELA MAUI     2009      75                N/A    15/10   8/350
HILO             2012      76                N/A    12/10   5/350
KANEOHE BAY BUOY 2006      75                N/A    12/10   5/ 10
HANALEI KAUAI    2022      75                N/A    13/10   7/ 10
KAHULUI HARBOR   2006   72 74   60/ 16/ 23 1023.7
HONOLULU HARBOR  2006   75 75   90/  9/ 18 1023.1
KILO NALU        NOT AVBL
HILO HARBOR      2006   70 74  240/  6/  7 1024.4
MOKUOLOE         1936   73 74   70/ 16/ 20 1024.1R
NAWILIWILI       2006   72 75   60/ 19/ 25 1023.8
WHOTS BUOY       NOT AVBL
BUOY 51028       NOT AVBL
$$

......................KEY........................................
  SKY/WX - SKY CONDITIONS/PRESENT WEATHER
  TMP    - TEMPERATURE IN FAHRENHEIT
  DWPT   - DEWPOINT IN FAHRENHEIT
  RH     - RELATIVE HUMIDITY IN PERCENT
  WIND   - DIRECTION AND SPEED /MPH FOR ISLANDS...KTS FOR BUOYS/
  PRES   - MEAN SEA LEVEL PRESSURE IN INCHES OF HG
  VSB    - VISIBILITY IN MILES
  HX     - HEAT INDEX
  WCI    - WIND CHILL INDEX
  VRB    - VARIABLE WIND DIRECTION
  N/A    - NOT AVAILABLE




USA.gov is the U.S. government's official web portal to all federal, state and local government web resources and services.